Location: ?????
(44.4284°N, 135.2222°E)
Time: 10:16:36
(UTC+00:00)

SL-16 R/B - Pass Details

Date: 19 May 2025
Orbit: 841 x 844 km, 71.0° (Epoch: 13 June)

Event Time Altitude Azimuth Distance (km) Brightness Sun altitude
Rises 15:57:48 0° 319° (NW) 3,411 5.8 -24.1°
Reaches altitude 10° 16:01:07 10° 299° (WNW) 2,470 4.8 -23.9°
Enters shadow 16:03:56 16° 269° (W) 2,050 4.0 -23.8°
